Location: Oakley
(51.2500°N, 1.1833°W)
Time: 06:45:17
(UTC+00:00)

Daily predictions for brighter satellites

Satellite Brightness Start Highest point End
(mag) Time Altitude Azimuth Time Altitude Azimuth Time Altitude Azimuth
Spot 2 Rocket 3.6 21:04:17 10° SSE 21:09:20 70° ENE 21:14:26 10° N
RESURS DK-1 3.8 21:07:15 10° NNW 21:10:54 28° NE 21:14:30 10° ESE
Cosmos 1371 Rocket 4.1 21:07:12 10° S 21:12:22 65° ESE 21:17:37 10° NNE
Tiangong 3.1 21:11:03 10° SW 21:12:53 14° S 21:14:43 10° SSE
Cosmos 1271 Rocket 2.9 21:10:11 10° N 21:14:10 65° ENE 21:18:06 10° SSE
ATLAS 2AS CENTAUR R/B 2.8 21:07:07 10° NW 21:14:23 86° SW 21:21:06 10° SE
USA 245 3.7 21:09:53 10° S 21:14:38 76° WSW 21:18:27 10° NNW
USA 234 3.6 21:14:33 10° ESE 21:21:05 71° NNE 21:27:37 10° WNW
Cosmos 1607 4.0 21:18:33 10° SSW 21:24:41 62° SE 21:30:47 10° NE
Lacrosse 5 2.0 21:22:10 10° WNW 21:27:16 70° SW 21:32:20 10° SE
Cosmos 1536 Rocket 4.1 21:27:08 10° SSE 21:31:12 42° E 21:35:19 10° NNE
Cosmos 1624 Rocket 4.0 21:27:47 10° SSW 21:33:02 86° ESE 21:38:16 10° NNE
USA 276 3.2 21:30:48 10° SSW 21:33:12 22° SSE 21:35:37 10° E
H-2A R/B 4.0 21:29:19 10° N 21:33:15 33° WNW 21:37:13 10° SW
Cosmos 2344 4.5 21:27:29 10° NW 21:35:45 64° NE 21:47:00 10° ESE
Cosmos 2228 3.7 21:32:22 10° N 21:36:24 41° ENE 21:40:08 12° SE
SPOT 3 Rocket 4.3 21:32:04 10° S 21:37:06 50° W 21:42:12 10° NNW
FALCON 9 DEB 3.1 21:34:07 10° WSW 21:37:23 81° NNW 21:40:40 10° ENE
Cosmos 1975 Rocket 3.9 21:33:11 10° SSW 21:37:34 54° WNW 21:41:56 10° N
Terra 1.8 21:33:52 10° SSE 21:38:38 84° ENE 21:43:25 10° NNW
Meteor 2-5 Rocket 4.2 21:40:03 10° SSW 21:45:30 63° WNW 21:51:03 10° N
CZ-4B R/B 3.9 21:46:34 10° NNW 21:48:40 19° WNW 21:50:47 10° WSW
ERS-1 Rocket 3.3 21:44:19 10° S 21:49:19 66° WSW 21:54:21 10° NNW
Cosmos 1455 2.9 21:46:02 10° NNW 21:49:44 52° W 21:53:26 10° S
NOSS 2-1 (E) 4.3 21:47:32 10° NW 21:51:59 62° SW 21:57:33 13° SSE
X-37B 1.8 21:50:01 10° SW 21:52:06 19° SSE 21:53:00 16° SE
Cosmos 2084 3.1 21:48:30 10° SW 21:52:20 74° SE 21:56:14 10° NE
Cosmos 1544 Rocket 4.3 21:49:11 10° NNW 21:53:22 49° W 21:57:32 10° SSW
Cosmos 2056 Rocket 4.0 21:48:11 10° SSW 21:53:34 69° WNW 21:59:00 10° NNE
Cosmos 1741 Rocket 4.1 21:51:12 10° NNW 21:56:33 77° ENE 22:01:12 14° SSE
Cosmos 1726 Rocket 4.3 21:57:48 10° N 22:01:52 39° ENE 22:05:09 15° SE
Cosmos 1420 Rocket 4.3 21:57:15 10° SSW 22:02:29 71° WNW 22:07:48 10° NNE
Cosmos 2184 Rocket 4.0 21:57:36 10° N 22:03:49 84° W 22:09:42 12° S
Resurs 01 Rocket 4.3 22:02:27 10° WSW 22:04:22 13° W 22:06:19 10° WNW
Cosmos 1980 Rocket 3.2 22:01:17 10° NNW 22:06:41 40° NE 22:12:01 10° ESE
Cosmos 1703 3.2 22:03:17 12° S 22:06:50 72° E 22:10:41 10° NNE
Cosmos 1697 Rocket 2.9 22:04:16 10° NNW 22:09:54 69° ENE 22:14:40 15° SE
Cosmos 1328 4.5 22:12:23 17° SSE 22:15:06 40° E 22:18:53 10° NNE
ALOS 2 4.3 22:12:02 10° ESE 22:15:29 23° ENE 22:18:57 10° N
CZ-2C R/B 4.2 22:15:45 10° N 22:20:20 61° WNW 22:24:48 10° SSW
Cosmos 2341 Rocket 4.5 22:14:24 10° N 22:20:37 51° ENE 22:25:37 16° SE
Meteor 1-21 Rocket 4.3 22:16:30 12° S 22:21:34 69° E 22:27:12 10° NNE
Cosmos 1656 4.1 22:18:19 10° NW 22:23:37 52° WSW 22:27:58 15° S
ASTEX 1 3.7 22:21:12 10° NNE 22:26:09 56° E 22:29:50 17° SSE
Cosmos 1850 Rocket 4.3 22:22:09 10° NNW 22:27:18 61° WSW 22:31:18 17° S
USA 267 3.2 22:21:46 10° ENE 22:28:17 64° SE 22:34:47 10° SW
ADEOS Rocket 4.2 22:23:16 11° SE 22:29:41 45° ENE 22:36:52 10° N
Cosmos 2058 Rocket 3.6 22:28:55 10° N 22:33:12 48° ENE 22:36:09 19° SE
Cosmos 724 4.4 22:30:03 10° SW 22:35:52 81° NW 22:41:42 10° NE
ARIANE 5 R/B 3.7 22:32:41 12° SSW 22:36:31 37° W 22:40:41 10° NNW
Cosmos 2322 Rocket 4.3 22:33:05 10° NNW 22:37:22 21° NE 22:41:39 10° E
SL-8 R/B 3.9 22:34:00 10° W 22:38:41 52° SSW 22:42:54 13° ESE
Cosmos 1892 Rocket 3.9 22:36:30 20° SSE 22:39:22 52° E 22:43:39 10° NNE
Cosmos 1833 Rocket 2.7 22:35:01 11° SSW 22:40:16 63° ESE 22:45:51 10° NE
Lacrosse 5 rocket 3.6 22:41:49 10° WSW 22:43:12 12° SW 22:44:37 10° SW
SAR-Lupe-4 3.6 22:40:24 10° NNE 22:44:00 83° WNW 22:46:39 17° SSW
Cosmos 2360 4.3 22:38:26 10° NNW 22:44:10 74° WSW 22:48:19 19° SSE
GP-B 3.1 22:42:31 10° N 22:46:59 73° E 22:49:54 21° S
Cosmos 1331 Rocket 4.0 22:42:34 13° SSW 22:47:18 74° ESE 22:52:37 10° NNE
Cosmos 1408 3.0 22:45:59 24° SSE 22:47:34 41° E 22:50:50 10° NNE
RESURS DK-1 3.1 22:45:06 10° NW 22:49:02 43° WSW 22:51:26 21° S
Cosmos 1452 Rocket 4.0 22:50:01 10° SW 22:55:13 63° WNW 23:00:28 10° NNE
Cosmos 2181 Rocket 4.3 22:52:48 19° SSE 22:57:01 51° E 23:03:00 10° NNE
Cosmos 1867 3.9 22:52:18 10° NW 22:57:46 67° NE 23:02:32 14° SE
Cosmos 2082 Rocket 2.8 22:57:35 20° SSE 23:01:03 41° ESE 23:06:22 10° NE
USA 234 3.4 22:59:13 17° SE 23:04:15 57° SW 23:10:43 10° WNW
ATLAS 2AS CENTAUR R/B 4.2 22:59:07 10° WNW 23:04:19 23° WSW 23:08:54 11° SSW
USA 276 1.9 23:05:34 10° WSW 23:08:32 60° S 23:11:31 10° E
Cosmos 1110 Rocket 4.2 23:03:19 10° SSW 23:08:34 73° WNW 23:13:54 10° NNE
Okean 1-7 Rocket 4.2 23:06:13 23° SSE 23:08:35 43° E 23:12:50 10° NNE
Lacrosse 5 3.6 23:06:09 10° W 23:09:29 18° SW 23:11:35 14° SSW
Cosmos 1302 Rocket 4.1 23:09:21 21° S 23:12:49 62° ESE 23:17:57 10° NNE
FALCON 9 DEB 3.4 23:10:34 10° WNW 23:13:49 64° N 23:17:05 10° E
Terra 4.2 23:14:22 10° WSW 23:17:02 15° W 23:19:42 10° NW
Cosmos 2360 Rocket 4.2 23:13:08 10° NNW 23:17:49 25° NE 23:22:27 10° E
SJ 16-02 3.2 23:17:27 10° N 23:21:09 25° NE 23:24:50 10° ESE
Cosmos 1825 2.5 23:19:32 28° SSE 23:21:09 49° E 23:24:48 10° NNE
BREEZE-M DEB (TANK) 3.5 23:18:54 10° W 23:21:58 72° S 23:33:01 10° E
Cosmos 1869 3.2 23:19:46 10° N 23:23:38 74° E 23:25:34 28° SSE
Meteor 1-27 4.2 23:19:05 10° NNW 23:24:42 88° E 23:28:18 23° SSE
ERS-2 3.1 23:25:52 10° NNE 23:29:08 32° E 23:30:22 25° SE
Cosmos 2084 Rocket 3.4 23:26:57 10° NW 23:30:46 55° SW 23:32:33 29° SSE
Cosmos 1606 4.1 23:29:37 10° N 23:33:03 30° ENE 23:35:18 17° ESE
COSMOS 2406 3.3 23:31:47 14° SSW 23:36:45 86° WNW 23:42:33 10° NNE
Cosmos 2369 4.2 23:34:26 10° NW 23:39:57 49° WSW 23:43:17 23° S
SL-16 R/B 2.8 23:36:56 10° NNW 23:42:34 56° NE 23:47:37 13° SE
Cosmos 1758 Rocket 4.2 23:41:08 24° SSE 23:43:14 42° E 23:47:21 10° NNE
Cosmos 968 Rocket 4.1 23:39:49 10° NW 23:44:44 44° WSW 23:47:36 23° SSW
Cosmos 1892 3.5 23:48:28 20° SW 23:50:42 43° WNW 23:54:20 10° N
Cosmos 1980 Rocket 2.7 23:45:22 10° NW 23:50:47 45° WSW 23:53:57 23° S
ALOS 2 3.0 23:49:16 25° SSW 23:51:32 51° W 23:55:50 10° NNW
Cosmos 1812 Rocket 3.6 23:47:42 10° N 23:52:13 85° ENE 23:54:37 27° SSE
Cosmos 1697 Rocket 4.2 23:48:59 10° NW 23:53:22 24° WSW 23:56:23 15° SW
